Voltar ao catálogo

ATLAS 5 CENTAUR DEB

LostHEO
NORAD 44846·DEBRIS·🇺🇸 United States

Lançado Sep 17, 2014 de Cape Canaveral Space Force Station

Loading…

Próximas Passagens (próximas 24 horas)

TLE

ObsoletoSource: Space-Track

Época: Aug 7, 2024, 20:19 UTC

1 44846U 14055CE  24220.84703022  .00000026  00000-0  00000+0 0  9994
2 44846  21.3486 101.8156 5487494 250.2410  44.6165  2.05816450 37219

Acompanhe ATLAS 5 CENTAUR DEB em tempo real com AllMySat

Download on the App Store